Location: Unspecified
(0.0000°N, 0.0000°E)
Time: 05:39:00
(UTC+00:00)

Injun/Solrad 3 - All Passes

Search period start: 21 May 2026 00:00
Search period end: 31 May 2026 00:00
Orbit: 868 x 988 km, 66.8° (Epoch: 20 May)

Date Brightness Start Highest point End Pass type
(mag) Time Alt. Az. Time Alt. Az. Time Alt. Az.
21 May - 01:43:10 10° WNW 01:48:09 24° WSW 01:53:06 10° SSW night (unlit)
21 May - 12:54:28 10° SSW 13:00:13 61° WNW 13:06:06 10° N daylight
22 May - 00:06:45 10° N 00:12:57 53° ENE 00:19:02 10° SE night (unlit)
22 May - 01:56:18 10° W 01:59:09 13° WSW 02:01:59 10° SW night (unlit)
22 May - 11:21:06 10° SSE 11:25:02 18° ESE 11:28:59 10° ENE daylight
22 May - 13:05:59 10° SW 13:11:11 33° WNW 13:16:30 10° N daylight
23 May - 00:17:30 10° NNW 00:23:55 89° WSW 00:30:12 10° SSE night (unlit)
23 May - 11:30:47 10° S 11:35:59 33° ESE 11:41:15 10° NE daylight
23 May - 13:18:14 10° WSW 13:22:11 19° WNW 13:26:12 10° NNW daylight
23 May - 22:45:32 10° NE 22:48:35 14° ENE 22:51:37 10° E night (unlit)
24 May - 00:28:43 10° NW 00:34:53 51° WSW 00:40:56 10° S night (unlit)
24 May - 11:41:10 10° S 11:46:56 61° ESE 11:52:48 10° NNE daylight
24 May - 22:54:32 10° NNE 22:59:37 25° ENE 23:04:37 10° ESE night (unlit)
25 May - 00:40:27 10° NW 00:45:50 29° WSW 00:51:09 10° SSW night (unlit)
25 May - 11:52:03 10° SSW 11:57:52 75° WNW 12:03:51 10° NNE daylight
25 May - 23:04:36 10° N 23:10:37 44° ENE 23:16:31 10° SE night (unlit)
26 May - 00:53:03 10° WNW 00:56:49 16° WSW 01:00:34 10° SSW night (unlit)
26 May - 10:19:28 10° SE 10:22:41 15° ESE 10:25:55 10° ENE daylight
26 May - 12:03:23 10° SW 12:08:51 41° WNW 12:14:25 10° N daylight
26 May - 23:15:13 10° NNW 23:21:36 77° ENE 23:27:51 10° SSE night (unlit)
27 May - 10:28:45 10° SSE 10:33:39 28° ESE 10:38:37 10° NE daylight
27 May - 12:15:21 10° WSW 12:19:51 23° WNW 12:24:24 10° NNW daylight
27 May - 21:44:42 10° NE 21:46:14 11° ENE 21:47:46 10° E night (unlit)
27 May - 23:26:17 10° NNW 23:32:33 62° WSW 23:38:43 10° S night (unlit)
28 May - 10:38:58 10° S 10:44:36 50° ESE 10:50:21 10° NE daylight
28 May - 12:28:43 10° W 12:30:52 12° WNW 12:33:03 10° NW daylight
28 May - 21:52:42 10° NNE 21:57:17 21° ENE 22:01:48 10° ESE night (unlit)
28 May - 23:37:49 10° NW 23:43:31 35° WSW 23:49:07 10° S night (unlit)
29 May - 10:49:41 10° SSW 10:55:33 90° WNW 11:01:33 10° NNE daylight
29 May - 22:02:31 10° N 22:08:18 36° ENE 22:13:58 10° SE night (unlit)
29 May - 23:50:03 10° WNW 23:54:29 20° WSW 23:58:52 10° SSW night (unlit)
30 May - 09:18:13 10° SE 09:20:20 12° ESE 09:22:29 10° E daylight
30 May - 11:00:52 10° SW 11:06:30 50° WNW 11:12:17 10° N daylight
30 May - 22:12:59 10° N 22:19:16 64° ENE 22:25:26 10° SSE visible
